Regional Weather Roundup
Issued by NWS

Home | Current Version | Previous Version | Graphics & Text | Print | Product List | Glossary Off
Versions: 1 2 3 4 5 6 7 8 9 10 11 12 13 14 15 16 17 18 19 20 21 22 23 24 25 26 27 28 29 30 31 32 33 34 35 36 37 38 39 40 41 42 43 44 45 46 47 48 49 50

000
ASUS43 KFSD 260410
RWRSD

WEATHER ROUNDUP FOR SOUTH DAKOTA
NATIONAL WEATHER SERVICE SIOUX FALLS SD
1100 PM CDT MON MAY 25 2015

NOTE: "FAIR" INDICATES FEW OR NO CLOUDS BELOW 12,000 FEET WITH NO
SIGNIFICANT WEATHER AND/OR OBSTRUCTIONS TO VISIBILITY.


SDZ001>005-009-010-012>017-260500-
NORTHWEST AND NORTH CENTRAL SOUTH DAKOTA

CITY           SKY/WX    TMP DP  RH WIND       PRES   REMARKS
BUFFALO          N/A     55  52  89 CALM      29.88R
FAITH            N/A     53  50  89 NW6       29.90R
MOBRIDGE       CLEAR     54  54 100 N6        29.86R
$$

SDZ012>016-024>037-041>051-057-063-072>074-260500-
SOUTHWEST AND SOUTH CENTRAL SOUTH DAKOTA

CITY           SKY/WX    TMP DP  RH WIND       PRES   REMARKS
RAPID CTY ARPT CLOUDY    53  51  93 N7        29.94R
PIERRE         CLOUDY    57  54  89 N6        29.88R
CUSTER         CLOUDY    49  46  90 CALM      29.98R
ELLSWORTH AFB  CLOUDY    54  54 100 N5        29.94
PHILIP         CLOUDY    57  54  89 N9        29.90R
PINE RIDGE     MOCLDY    53  51  93 N6        29.92R
SPEARFISH      MOCLDY    48  48 100 CALM      29.97S
WINNER         CLOUDY    60  53  77 NE6       29.87R
$$

SDZ004>011-016>023-039-040-260500-
NORTHEAST SOUTH DAKOTA

CITY           SKY/WX    TMP DP  RH WIND       PRES   REMARKS
ABERDEEN       CLEAR     57  49  74 CALM      29.87R
WATERTOWN      CLEAR     52  49  89 NE8       29.83R
BROOKINGS      PTCLDY    55  52  88 N8        29.84R
SISSETON         N/A     52  50  93 NW5       29.84R
$$

SDZ017-020-022-023-036>040-048>070-260500-
SOUTHEAST SOUTH DAKOTA

CITY           SKY/WX    TMP DP  RH WIND       PRES   REMARKS
SIOUX FALLS    FAIR      59  56  89 N6        29.80R
HURON          MOCLDY    53  50  89 N5        29.84R
CHAMBERLAIN    PTCLDY    56  49  75 N5        29.86R
MITCHELL       PTCLDY    57  53  86 N9        29.83R
YANKTON        CLOUDY    63  57  82 CALM      29.80R
$$

ABBREVIATIONS USED IN REMARKS
   TC - TEMPERATURE IN CELSIUS
  WCI - WIND CHILL INDEX
   HX - HEAT INDEX
  VSB - VISIBILITY



USA.gov is the U.S. government's official web portal to all federal, state and local government web resources and services.